User: anonymous   Login
Location: Bailey Inglish Elementary School
(33.5826°N, 96.1780°W)
Time: 00:44:54
(UTC+00:00)
Language:

BlueWalker 3 - Orbit

View from above orbital plane
View from above orbital plane
View from above satellite
View from above satellite

Ground track
Ground track

The orbit data is extracted from the following two-line orbital elements,

1 53807U 22111AL  24202.26197229  .00008041  00000-0  31471-3 0  9990
2 53807  53.2366  41.1473 0008083 183.1580 176.9370 15.26701723103286
Epoch (UTC): 20 July 2024 06:17:14
Eccentricity: 0.0008083
inclination: 53.2366°
perigee height: 480 km
apogee height: 491 km
right ascension of ascending node: 41.1473°
argument of perigee: 183.1580°
revolutions per day: 15.26701723
mean anomaly at epoch: 176.9370°
orbit number at epoch: 10328

The dashed part of the orbit path shows where the satellite is in the earth's shadow,  

DLR